Year,Month,Day,Hour,Minute,Value (Times are PST for temperature in C)
2019,04,16,00,00,7.30
2019,04,16,00,01,7.20
2019,04,16,00,02,7.20
2019,04,16,00,03,7.20
2019,04,16,00,04,7.20
2019,04,16,00,05,7.20
2019,04,16,00,06,7.10
2019,04,16,00,07,7.10
2019,04,16,00,08,7.10
2019,04,16,00,09,7.10
2019,04,16,00,10,7.10
2019,04,16,00,11,7.10
2019,04,16,00,12,7.00
2019,04,16,00,13,7.10
2019,04,16,00,14,7.00
2019,04,16,00,15,7.00
2019,04,16,00,16,7.00
2019,04,16,00,17,7.00
2019,04,16,00,18,6.90
2019,04,16,00,19,6.90
2019,04,16,00,20,6.90
2019,04,16,00,21,6.90
2019,04,16,00,22,6.80
2019,04,16,00,23,6.80
2019,04,16,00,24,6.80
2019,04,16,00,25,6.70
2019,04,16,00,26,6.70
2019,04,16,00,27,6.60
2019,04,16,00,28,6.60
2019,04,16,00,29,6.60
2019,04,16,00,30,6.60
2019,04,16,00,31,6.60
2019,04,16,00,32,6.50
2019,04,16,00,33,6.50
2019,04,16,00,34,6.50
2019,04,16,00,35,6.40
2019,04,16,00,36,6.40
2019,04,16,00,37,6.30
2019,04,16,00,38,6.30
2019,04,16,00,39,6.30
2019,04,16,00,40,6.30
2019,04,16,00,41,6.30
2019,04,16,00,42,6.20
2019,04,16,00,43,6.20
2019,04,16,00,44,6.20
2019,04,16,00,45,6.20
2019,04,16,00,46,6.20
2019,04,16,00,47,6.10
2019,04,16,00,48,6.10
2019,04,16,00,49,6.10
2019,04,16,00,50,6.00
2019,04,16,00,51,6.00
2019,04,16,00,52,6.00
2019,04,16,00,53,5.90
2019,04,16,00,54,5.90
2019,04,16,00,55,5.90
2019,04,16,00,56,5.90
2019,04,16,00,57,5.90
2019,04,16,00,58,5.90
2019,04,16,00,59,5.80
2019,04,16,01,00,5.80
2019,04,16,01,01,5.80
2019,04,16,01,02,5.80
2019,04,16,01,03,5.90
2019,04,16,01,04,5.90
2019,04,16,01,05,5.90
2019,04,16,01,06,5.90
2019,04,16,01,07,5.90
2019,04,16,01,08,5.90
2019,04,16,01,09,5.90
2019,04,16,01,10,5.90
2019,04,16,01,11,5.90
2019,04,16,01,12,5.90
2019,04,16,01,13,5.90
2019,04,16,01,14,5.90
2019,04,16,01,15,5.90
2019,04,16,01,16,5.90
2019,04,16,01,17,5.90
2019,04,16,01,18,5.90
2019,04,16,01,19,5.90
2019,04,16,01,20,5.90
2019,04,16,01,21,5.90
2019,04,16,01,22,5.90
2019,04,16,01,23,5.90
2019,04,16,01,24,5.90
2019,04,16,01,25,5.90
2019,04,16,01,26,5.90
2019,04,16,01,27,5.90
2019,04,16,01,28,5.90
2019,04,16,01,29,5.90
2019,04,16,01,30,5.90
2019,04,16,01,31,5.90
2019,04,16,01,32,5.90
2019,04,16,01,33,5.90
2019,04,16,01,34,5.90
2019,04,16,01,35,5.90
2019,04,16,01,36,5.90
2019,04,16,01,37,5.90
2019,04,16,01,38,5.90
2019,04,16,01,39,6.00
2019,04,16,01,40,6.00
2019,04,16,01,41,6.00
2019,04,16,01,42,6.00
2019,04,16,01,43,6.00
2019,04,16,01,44,6.00
2019,04,16,01,45,6.00
2019,04,16,01,46,6.00
2019,04,16,01,47,6.00
2019,04,16,01,48,6.00
2019,04,16,01,49,6.00
2019,04,16,01,50,6.10
2019,04,16,01,51,6.10
2019,04,16,01,52,6.10
2019,04,16,01,53,6.10
2019,04,16,01,54,6.10
2019,04,16,01,55,6.20
2019,04,16,01,56,6.20
2019,04,16,01,57,6.20
2019,04,16,01,58,6.30
2019,04,16,01,59,6.30
2019,04,16,02,00,6.30
2019,04,16,02,01,6.40
2019,04,16,02,02,6.40
2019,04,16,02,03,6.40
2019,04,16,02,04,6.40
2019,04,16,02,05,6.40
2019,04,16,02,06,6.40
2019,04,16,02,07,6.40
2019,04,16,02,08,6.40
2019,04,16,02,09,6.30
2019,04,16,02,10,6.30
2019,04,16,02,11,6.30
2019,04,16,02,12,6.30
2019,04,16,02,13,6.30
2019,04,16,02,14,6.30
2019,04,16,02,15,6.30
2019,04,16,02,16,6.30
2019,04,16,02,17,6.30
2019,04,16,02,18,6.30
2019,04,16,02,19,6.30
2019,04,16,02,20,6.30
2019,04,16,02,21,6.30
2019,04,16,02,22,6.30
2019,04,16,02,23,6.30
2019,04,16,02,24,6.30
2019,04,16,02,25,6.30
2019,04,16,02,26,6.40
2019,04,16,02,27,6.40
2019,04,16,02,28,6.40
2019,04,16,02,29,6.40
2019,04,16,02,30,6.40
2019,04,16,02,31,6.40
2019,04,16,02,32,6.40
2019,04,16,02,33,6.40
2019,04,16,02,34,6.40
2019,04,16,02,35,6.50
2019,04,16,02,36,6.50
2019,04,16,02,37,6.50
2019,04,16,02,38,6.50
2019,04,16,02,39,6.50
2019,04,16,02,40,6.60
2019,04,16,02,41,6.60
2019,04,16,02,42,6.60
2019,04,16,02,43,6.60
2019,04,16,02,44,6.60
2019,04,16,02,45,6.60
2019,04,16,02,46,6.60
2019,04,16,02,47,6.60
2019,04,16,02,48,6.60
2019,04,16,02,49,6.60
2019,04,16,02,50,6.60
2019,04,16,02,51,6.60
2019,04,16,02,52,6.60
2019,04,16,02,53,6.60
2019,04,16,02,54,6.60
2019,04,16,02,55,6.60
2019,04,16,02,56,6.70
2019,04,16,02,57,6.70
2019,04,16,02,58,6.70
2019,04,16,02,59,6.70
2019,04,16,03,00,6.70
2019,04,16,03,01,6.70
2019,04,16,03,02,6.70
2019,04,16,03,03,6.70
2019,04,16,03,04,6.70
2019,04,16,03,05,6.70
2019,04,16,03,06,6.70
2019,04,16,03,07,6.70
2019,04,16,03,08,6.70
2019,04,16,03,09,6.70
2019,04,16,03,10,6.70
2019,04,16,03,11,6.70
2019,04,16,03,12,6.70
2019,04,16,03,13,6.70
2019,04,16,03,14,6.70
2019,04,16,03,15,6.70
2019,04,16,03,16,6.80
2019,04,16,03,17,6.80
2019,04,16,03,18,6.80
2019,04,16,03,19,6.80
2019,04,16,03,20,6.80
2019,04,16,03,21,6.80
2019,04,16,03,22,6.80
2019,04,16,03,23,6.80
2019,04,16,03,24,6.90
2019,04,16,03,25,6.90
2019,04,16,03,26,6.90
2019,04,16,03,27,6.90
2019,04,16,03,28,6.90
2019,04,16,03,29,6.90
2019,04,16,03,30,6.90
2019,04,16,03,31,6.90
2019,04,16,03,32,6.90
2019,04,16,03,33,6.90
2019,04,16,03,34,6.90
2019,04,16,03,35,6.80
2019,04,16,03,36,6.80
2019,04,16,03,37,6.80
2019,04,16,03,38,6.80
2019,04,16,03,39,6.80
2019,04,16,03,40,6.80
2019,04,16,03,41,6.80
2019,04,16,03,42,6.80
2019,04,16,03,43,6.80
2019,04,16,03,44,6.80
2019,04,16,03,45,6.80
2019,04,16,03,46,6.80
2019,04,16,03,47,6.80
2019,04,16,03,48,6.80
2019,04,16,03,49,6.80
2019,04,16,03,50,6.80
2019,04,16,03,51,6.80
2019,04,16,03,52,6.80
2019,04,16,03,53,6.80
2019,04,16,03,54,6.80
2019,04,16,03,55,6.80
2019,04,16,03,56,6.80
2019,04,16,03,57,6.80
2019,04,16,03,58,6.80
2019,04,16,03,59,6.80
2019,04,16,04,00,6.80
2019,04,16,04,01,6.80
2019,04,16,04,02,6.80
2019,04,16,04,03,6.80
2019,04,16,04,04,6.80
2019,04,16,04,05,6.70
2019,04,16,04,06,6.80
2019,04,16,04,07,6.70
2019,04,16,04,08,6.70
2019,04,16,04,09,6.70
2019,04,16,04,10,6.70
2019,04,16,04,11,6.70
2019,04,16,04,12,6.70
2019,04,16,04,13,6.70
2019,04,16,04,14,6.70
2019,04,16,04,15,6.70
2019,04,16,04,16,6.80
2019,04,16,04,17,6.80
2019,04,16,04,18,6.80
2019,04,16,04,19,6.80
2019,04,16,04,20,6.80
2019,04,16,04,21,6.80
2019,04,16,04,22,6.90
2019,04,16,04,23,6.90
2019,04,16,04,24,6.90
2019,04,16,04,25,6.90
2019,04,16,04,26,6.90
2019,04,16,04,27,6.90
2019,04,16,04,28,6.90
2019,04,16,04,29,6.90
2019,04,16,04,30,6.90
2019,04,16,04,31,6.90
2019,04,16,04,32,6.90
2019,04,16,04,33,6.90
2019,04,16,04,34,6.90
2019,04,16,04,35,6.90
2019,04,16,04,36,6.90
2019,04,16,04,37,6.90
2019,04,16,04,38,6.90
2019,04,16,04,39,6.90
2019,04,16,04,40,6.90
2019,04,16,04,41,6.90
2019,04,16,04,42,6.90
2019,04,16,04,43,6.90
2019,04,16,04,44,6.90
2019,04,16,04,45,6.90
2019,04,16,04,46,7.00
2019,04,16,04,47,7.00
2019,04,16,04,48,7.00
2019,04,16,04,49,7.00
2019,04,16,04,50,7.00
2019,04,16,04,51,7.00
2019,04,16,04,52,7.00
2019,04,16,04,53,7.00
2019,04,16,04,54,6.90
2019,04,16,04,55,6.90
2019,04,16,04,56,6.90
2019,04,16,04,57,6.90
2019,04,16,04,58,6.90
2019,04,16,04,59,6.90
2019,04,16,05,00,6.90
2019,04,16,05,01,6.90
2019,04,16,05,02,6.80
2019,04,16,05,03,6.80
2019,04,16,05,04,6.80
2019,04,16,05,05,6.80
2019,04,16,05,06,6.80
2019,04,16,05,07,6.80
2019,04,16,05,08,6.80
2019,04,16,05,09,6.80
2019,04,16,05,10,6.80
2019,04,16,05,11,6.70
2019,04,16,05,12,6.70
2019,04,16,05,13,6.70
2019,04,16,05,14,6.70
2019,04,16,05,15,6.70
2019,04,16,05,16,6.70
2019,04,16,05,17,6.70
2019,04,16,05,18,6.70
2019,04,16,05,19,6.70
2019,04,16,05,20,6.70
2019,04,16,05,21,6.70
2019,04,16,05,22,6.70
2019,04,16,05,23,6.70
2019,04,16,05,24,6.70
2019,04,16,05,25,6.70
2019,04,16,05,26,6.70
2019,04,16,05,27,6.70
2019,04,16,05,28,6.70
2019,04,16,05,29,6.70
2019,04,16,05,30,6.70
2019,04,16,05,31,6.70
2019,04,16,05,32,6.70
2019,04,16,05,33,6.70
2019,04,16,05,34,6.70
2019,04,16,05,35,6.70
2019,04,16,05,36,6.70
2019,04,16,05,37,6.70
2019,04,16,05,38,6.70
2019,04,16,05,39,6.70
2019,04,16,05,40,6.70
2019,04,16,05,41,6.70
2019,04,16,05,42,6.70
2019,04,16,05,43,6.70
2019,04,16,05,44,6.70
2019,04,16,05,45,6.70
2019,04,16,05,46,6.70
2019,04,16,05,47,6.70
2019,04,16,05,48,6.70
2019,04,16,05,49,6.70
2019,04,16,05,50,6.70
2019,04,16,05,51,6.70
2019,04,16,05,52,6.70
2019,04,16,05,53,6.70
2019,04,16,05,54,6.70
2019,04,16,05,55,6.70
2019,04,16,05,56,6.60
2019,04,16,05,57,6.60
2019,04,16,05,58,6.60
2019,04,16,05,59,6.60
2019,04,16,06,00,6.60
2019,04,16,06,01,6.60
2019,04,16,06,02,6.60
2019,04,16,06,03,6.60
2019,04,16,06,04,6.60
2019,04,16,06,05,6.60
2019,04,16,06,06,6.60
2019,04,16,06,07,6.60
2019,04,16,06,08,6.60
2019,04,16,06,09,6.50
2019,04,16,06,10,6.50
2019,04,16,06,11,6.50
2019,04,16,06,12,6.50
2019,04,16,06,13,6.40
2019,04,16,06,14,6.40
2019,04,16,06,15,6.40
2019,04,16,06,16,6.40
2019,04,16,06,17,6.40
2019,04,16,06,18,6.40
2019,04,16,06,19,6.40
2019,04,16,06,20,6.40
2019,04,16,06,21,6.30
2019,04,16,06,22,6.30
2019,04,16,06,23,6.30
2019,04,16,06,24,6.30
2019,04,16,06,25,6.30
2019,04,16,06,26,6.30
2019,04,16,06,27,6.30
2019,04,16,06,28,6.30
2019,04,16,06,29,6.30
2019,04,16,06,30,6.30
2019,04,16,06,31,6.30
2019,04,16,06,32,6.30
2019,04,16,06,33,6.30
2019,04,16,06,34,6.30
2019,04,16,06,35,6.30
2019,04,16,06,36,6.30
2019,04,16,06,37,6.30
2019,04,16,06,38,6.30
2019,04,16,06,39,6.20
2019,04,16,06,40,6.20
2019,04,16,06,41,6.20
2019,04,16,06,42,6.20
2019,04,16,06,43,6.20
2019,04,16,06,44,6.20
2019,04,16,06,45,6.10
2019,04,16,06,46,6.10
2019,04,16,06,47,6.10
2019,04,16,06,48,6.10
2019,04,16,06,49,6.00
2019,04,16,06,50,6.00
2019,04,16,06,51,6.00
2019,04,16,06,52,5.90
2019,04,16,06,53,5.90
2019,04,16,06,54,5.90
2019,04,16,06,55,5.90
2019,04,16,06,56,5.90
2019,04,16,06,57,5.90
2019,04,16,06,58,5.90
2019,04,16,06,59,5.90
2019,04,16,07,00,5.90
2019,04,16,07,01,5.80
2019,04,16,07,02,5.80
2019,04,16,07,03,5.80
2019,04,16,07,04,5.80
2019,04,16,07,05,5.90
2019,04,16,07,06,5.80
2019,04,16,07,07,5.90
2019,04,16,07,08,5.90
2019,04,16,07,09,5.90
2019,04,16,07,10,5.90
2019,04,16,07,11,5.90
2019,04,16,07,12,5.90
2019,04,16,07,13,5.90
2019,04,16,07,14,6.00
2019,04,16,07,15,6.00
2019,04,16,07,16,6.00
2019,04,16,07,17,6.00
2019,04,16,07,18,6.10
2019,04,16,07,19,6.10
2019,04,16,07,20,6.10
2019,04,16,07,21,6.10
2019,04,16,07,22,6.20
2019,04,16,07,23,6.20
2019,04,16,07,24,6.30
2019,04,16,07,25,6.30
2019,04,16,07,26,6.40
2019,04,16,07,27,6.50
2019,04,16,07,28,6.60
2019,04,16,07,29,6.70
2019,04,16,07,30,6.80
2019,04,16,07,31,6.80
2019,04,16,07,32,6.90
2019,04,16,07,33,6.90
2019,04,16,07,34,7.00
2019,04,16,07,35,7.00
2019,04,16,07,36,7.10
2019,04,16,07,37,7.20
2019,04,16,07,38,7.20
2019,04,16,07,39,7.30
2019,04,16,07,40,7.40
2019,04,16,07,41,7.50
2019,04,16,07,42,7.60
2019,04,16,07,43,7.70
2019,04,16,07,44,7.80
2019,04,16,07,45,7.90
2019,04,16,07,46,8.00
2019,04,16,07,47,8.10
2019,04,16,07,48,8.10
2019,04,16,07,49,8.20
2019,04,16,07,50,8.30
2019,04,16,07,51,8.40
2019,04,16,07,52,8.40
2019,04,16,07,53,8.50
2019,04,16,07,54,8.60
2019,04,16,07,55,8.70
2019,04,16,07,56,8.80
2019,04,16,07,57,8.80
2019,04,16,07,58,8.90
2019,04,16,07,59,9.00
2019,04,16,08,00,9.10
2019,04,16,08,01,9.10
2019,04,16,08,02,9.20
2019,04,16,08,03,9.20
2019,04,16,08,04,9.30
2019,04,16,08,05,9.30
2019,04,16,08,06,9.30
2019,04,16,08,07,9.40
2019,04,16,08,08,9.40
2019,04,16,08,09,9.40
2019,04,16,08,10,9.40
2019,04,16,08,11,9.40
2019,04,16,08,12,9.40
2019,04,16,08,13,9.40
2019,04,16,08,14,9.50
2019,04,16,08,15,9.50
2019,04,16,08,16,9.60
2019,04,16,08,17,9.70
2019,04,16,08,18,9.70
2019,04,16,08,19,9.80
2019,04,16,08,20,9.80
2019,04,16,08,21,9.90
2019,04,16,08,22,10.00
2019,04,16,08,23,10.00
2019,04,16,08,24,10.10
2019,04,16,08,25,10.10
2019,04,16,08,26,10.10
2019,04,16,08,27,10.10
2019,04,16,08,28,10.00
2019,04,16,08,29,10.00
2019,04,16,08,30,9.90
2019,04,16,08,31,9.90
2019,04,16,08,32,9.80
2019,04,16,08,33,9.80
2019,04,16,08,34,9.80
2019,04,16,08,35,9.80
2019,04,16,08,36,9.80
2019,04,16,08,37,9.80
2019,04,16,08,38,9.80
2019,04,16,08,39,9.80
2019,04,16,08,40,9.70
2019,04,16,08,41,9.70
2019,04,16,08,42,9.70
2019,04,16,08,43,9.70
2019,04,16,08,44,9.70
2019,04,16,08,45,9.70
2019,04,16,08,46,9.80
2019,04,16,08,47,9.80
2019,04,16,08,48,9.80
2019,04,16,08,49,9.90
2019,04,16,08,50,10.00
2019,04,16,08,51,10.10
2019,04,16,08,52,10.10
2019,04,16,08,53,10.20
2019,04,16,08,54,10.30
2019,04,16,08,55,10.30
2019,04,16,08,56,10.30
2019,04,16,08,57,10.40
2019,04,16,08,58,10.40
2019,04,16,08,59,10.40
2019,04,16,09,00,10.40
2019,04,16,09,01,10.50
2019,04,16,09,02,10.50
2019,04,16,09,03,10.60
2019,04,16,09,04,10.50
2019,04,16,09,05,10.50
2019,04,16,09,06,10.40
2019,04,16,09,07,10.50
2019,04,16,09,08,10.50
2019,04,16,09,09,10.50
2019,04,16,09,10,10.60
2019,04,16,09,11,10.60
2019,04,16,09,12,10.60
2019,04,16,09,13,10.70
2019,04,16,09,14,10.80
2019,04,16,09,15,10.80
2019,04,16,09,16,10.90
2019,04,16,09,17,11.00
2019,04,16,09,18,11.00
2019,04,16,09,19,11.10
2019,04,16,09,20,11.10
2019,04,16,09,21,11.10
2019,04,16,09,22,11.20
2019,04,16,09,23,11.10
2019,04,16,09,24,11.10
2019,04,16,09,25,11.10
2019,04,16,09,26,11.10
2019,04,16,09,27,11.20
2019,04,16,09,28,11.20
2019,04,16,09,29,11.20
2019,04,16,09,30,11.20
2019,04,16,09,31,11.30
2019,04,16,09,32,11.20
2019,04,16,09,33,11.20
2019,04,16,09,34,11.20
2019,04,16,09,35,11.20
2019,04,16,09,36,11.10
2019,04,16,09,37,11.10
2019,04,16,09,38,11.20
2019,04,16,09,39,11.20
2019,04,16,09,40,11.10
2019,04,16,09,41,11.10
2019,04,16,09,42,11.10
2019,04,16,09,43,11.10
2019,04,16,09,44,11.10
2019,04,16,09,45,11.10
2019,04,16,09,46,11.00
2019,04,16,09,47,11.00
2019,04,16,09,48,11.00
2019,04,16,09,49,10.90
2019,04,16,09,50,10.90
2019,04,16,09,51,10.90
2019,04,16,09,52,10.90
2019,04,16,09,53,10.90
2019,04,16,09,54,10.90
2019,04,16,09,55,11.00
2019,04,16,09,56,11.00
2019,04,16,09,57,11.00
2019,04,16,09,58,11.00
2019,04,16,09,59,11.00
2019,04,16,10,00,11.00
2019,04,16,10,01,11.00
2019,04,16,10,02,10.90
2019,04,16,10,03,10.90
2019,04,16,10,04,10.80
2019,04,16,10,05,10.80
2019,04,16,10,06,10.80
2019,04,16,10,07,10.80
2019,04,16,10,08,10.80
2019,04,16,10,09,10.80
2019,04,16,10,10,10.90
2019,04,16,10,11,10.90
2019,04,16,10,12,10.90
2019,04,16,10,13,10.80
2019,04,16,10,14,10.80
2019,04,16,10,15,10.70
2019,04,16,10,16,10.70
2019,04,16,10,17,10.80
2019,04,16,10,18,10.80
2019,04,16,10,19,10.80
2019,04,16,10,20,10.80
2019,04,16,10,21,10.80
2019,04,16,10,22,10.80
2019,04,16,10,23,10.70
2019,04,16,10,24,10.70
2019,04,16,10,25,10.70
2019,04,16,10,26,10.70
2019,04,16,10,27,10.70
2019,04,16,10,28,10.70
2019,04,16,10,29,10.80
2019,04,16,10,30,10.80
2019,04,16,10,31,10.80
2019,04,16,10,32,10.80
2019,04,16,10,33,10.80
2019,04,16,10,34,10.80
2019,04,16,10,35,10.90
2019,04,16,10,36,10.90
2019,04,16,10,37,10.90
2019,04,16,10,38,10.90
2019,04,16,10,39,10.80
2019,04,16,10,40,10.80
2019,04,16,10,41,10.80
2019,04,16,10,42,10.90
2019,04,16,10,43,10.90
2019,04,16,10,44,10.90
2019,04,16,10,45,10.90
2019,04,16,10,46,10.90
2019,04,16,10,47,10.90
2019,04,16,10,48,10.90
2019,04,16,10,49,10.90
2019,04,16,10,50,10.80
2019,04,16,10,51,10.80
2019,04,16,10,52,10.80
2019,04,16,10,53,10.90
2019,04,16,10,54,10.90
2019,04,16,10,55,10.90
2019,04,16,10,56,10.90
2019,04,16,10,57,10.90
2019,04,16,10,58,10.90
2019,04,16,10,59,11.00
2019,04,16,11,00,11.10
2019,04,16,11,01,11.10
2019,04,16,11,02,11.20
2019,04,16,11,03,11.20
2019,04,16,11,04,11.30
2019,04,16,11,05,11.30
2019,04,16,11,06,11.30
2019,04,16,11,07,11.30
2019,04,16,11,08,11.30
2019,04,16,11,09,11.30
2019,04,16,11,10,11.30
2019,04,16,11,11,11.40
2019,04,16,11,12,11.40
2019,04,16,11,13,11.40
2019,04,16,11,14,11.40
2019,04,16,11,15,11.40
2019,04,16,11,16,11.40
2019,04,16,11,17,11.40
2019,04,16,11,18,11.40
2019,04,16,11,19,11.40
2019,04,16,11,20,11.40
2019,04,16,11,21,11.50
2019,04,16,11,22,11.60
2019,04,16,11,23,11.60
2019,04,16,11,24,11.50
2019,04,16,11,25,11.50
2019,04,16,11,26,11.50
2019,04,16,11,27,11.50
2019,04,16,11,28,11.50
2019,04,16,11,29,11.50
2019,04,16,11,30,11.60
2019,04,16,11,31,11.60
2019,04,16,11,32,11.70
2019,04,16,11,33,11.70
2019,04,16,11,34,11.70
2019,04,16,11,35,11.70
2019,04,16,11,36,11.70
2019,04,16,11,37,11.60
2019,04,16,11,38,11.60
2019,04,16,11,39,11.50
2019,04,16,11,40,11.40
2019,04,16,11,41,11.30
2019,04,16,11,42,11.30
2019,04,16,11,43,11.30
2019,04,16,11,44,11.20
2019,04,16,11,45,11.20
2019,04,16,11,46,11.20
2019,04,16,11,47,11.30
2019,04,16,11,48,11.40
2019,04,16,11,49,11.50
2019,04,16,11,50,11.70
2019,04,16,11,51,11.80
2019,04,16,11,52,11.80
2019,04,16,11,53,11.80
2019,04,16,11,54,11.90
2019,04,16,11,55,11.90
2019,04,16,11,56,11.90
2019,04,16,11,57,12.00
2019,04,16,11,58,12.00
2019,04,16,11,59,12.10
2019,04,16,12,00,12.20
2019,04,16,12,01,12.20
2019,04,16,12,02,12.20
2019,04,16,12,03,12.20
2019,04,16,12,04,12.20
2019,04,16,12,05,12.20
2019,04,16,12,06,12.20
2019,04,16,12,07,12.20
2019,04,16,12,08,12.20
2019,04,16,12,09,12.20
2019,04,16,12,10,12.10
2019,04,16,12,11,12.00
2019,04,16,12,12,12.00
2019,04,16,12,13,12.00
2019,04,16,12,14,12.00
2019,04,16,12,15,12.00
2019,04,16,12,16,12.00
2019,04,16,12,17,12.00
2019,04,16,12,18,12.00
2019,04,16,12,19,12.00
2019,04,16,12,20,12.00
2019,04,16,12,21,12.00
2019,04,16,12,22,11.90
2019,04,16,12,23,11.90
2019,04,16,12,24,12.00
2019,04,16,12,25,12.00
2019,04,16,12,26,12.00
2019,04,16,12,27,12.00
2019,04,16,12,28,11.90
2019,04,16,12,29,11.90
2019,04,16,12,30,11.80
2019,04,16,12,31,11.70
2019,04,16,12,32,11.70
2019,04,16,12,33,11.70
2019,04,16,12,34,11.60
2019,04,16,12,35,11.60
2019,04,16,12,36,11.60
2019,04,16,12,37,11.60
2019,04,16,12,38,11.60
2019,04,16,12,39,11.60
2019,04,16,12,40,11.60
2019,04,16,12,41,11.50
2019,04,16,12,42,11.50
2019,04,16,12,43,11.40
2019,04,16,12,44,11.40
2019,04,16,12,45,11.30
2019,04,16,12,46,11.40
2019,04,16,12,47,11.40
2019,04,16,12,48,11.40
2019,04,16,12,49,11.50
2019,04,16,12,50,11.50
2019,04,16,12,51,11.50
2019,04,16,12,52,11.50
2019,04,16,12,53,11.40
2019,04,16,12,54,11.40
2019,04,16,12,55,11.30
2019,04,16,12,56,11.20
2019,04,16,12,57,11.20
2019,04,16,12,58,11.30
2019,04,16,12,59,11.30
2019,04,16,13,00,11.40
2019,04,16,13,01,11.50
2019,04,16,13,02,11.60
2019,04,16,13,03,11.70
2019,04,16,13,04,11.80
2019,04,16,13,05,11.90
2019,04,16,13,06,12.00
2019,04,16,13,07,11.90
2019,04,16,13,08,11.90
2019,04,16,13,09,11.90
2019,04,16,13,10,11.90
2019,04,16,13,11,11.90
2019,04,16,13,12,11.90
2019,04,16,13,13,11.90
2019,04,16,13,14,11.80
2019,04,16,13,15,11.80
2019,04,16,13,16,11.80
2019,04,16,13,17,11.80
2019,04,16,13,18,11.80
2019,04,16,13,19,11.80
2019,04,16,13,20,11.90
2019,04,16,13,21,12.00
2019,04,16,13,22,12.10
2019,04,16,13,23,12.20
2019,04,16,13,24,12.20
2019,04,16,13,25,12.20
2019,04,16,13,26,12.30
2019,04,16,13,27,12.30
2019,04,16,13,28,12.30
2019,04,16,13,29,12.30
2019,04,16,13,30,12.30
2019,04,16,13,31,12.30
2019,04,16,13,32,12.20
2019,04,16,13,33,12.20
2019,04,16,13,34,12.20
2019,04,16,13,35,12.10
2019,04,16,13,36,12.10
2019,04,16,13,37,12.10
2019,04,16,13,38,12.10
2019,04,16,13,39,12.10
2019,04,16,13,40,12.20
2019,04,16,13,41,12.20
2019,04,16,13,42,12.20
2019,04,16,13,43,12.20
2019,04,16,13,44,12.20
2019,04,16,13,45,12.10
2019,04,16,13,46,12.10
2019,04,16,13,47,12.10
2019,04,16,13,48,12.10
2019,04,16,13,49,12.10
2019,04,16,13,50,12.10
2019,04,16,13,51,12.10
2019,04,16,13,52,12.00
2019,04,16,13,53,11.90
2019,04,16,13,54,11.90
2019,04,16,13,55,11.80
2019,04,16,13,56,11.80
2019,04,16,13,57,11.80
2019,04,16,13,58,11.80
2019,04,16,13,59,11.90
2019,04,16,14,00,11.90
2019,04,16,14,01,11.90
2019,04,16,14,02,11.80
2019,04,16,14,03,11.80
2019,04,16,14,04,11.90
2019,04,16,14,05,12.00
2019,04,16,14,06,12.00
2019,04,16,14,07,12.10
2019,04,16,14,08,12.00
2019,04,16,14,09,12.10
2019,04,16,14,10,12.10
2019,04,16,14,11,12.10
2019,04,16,14,12,12.10
2019,04,16,14,13,12.20
2019,04,16,14,14,12.20
2019,04,16,14,15,12.20
2019,04,16,14,16,12.20
2019,04,16,14,17,12.10
2019,04,16,14,18,12.10
2019,04,16,14,19,12.10
2019,04,16,14,20,12.10
2019,04,16,14,21,12.20
2019,04,16,14,22,12.20
2019,04,16,14,23,12.20
2019,04,16,14,24,12.30
2019,04,16,14,25,12.30
2019,04,16,14,26,12.30
2019,04,16,14,27,12.20
2019,04,16,14,28,12.20
2019,04,16,14,29,12.20
2019,04,16,14,30,12.10
2019,04,16,14,31,12.10
2019,04,16,14,32,12.00
2019,04,16,14,33,11.90
2019,04,16,14,34,11.90
2019,04,16,14,35,11.90
2019,04,16,14,36,11.80
2019,04,16,14,37,11.80
2019,04,16,14,38,11.80
2019,04,16,14,39,11.80
2019,04,16,14,40,11.80
2019,04,16,14,41,11.80
2019,04,16,14,42,11.70
2019,04,16,14,43,11.70
2019,04,16,14,44,11.70
2019,04,16,14,45,11.70
2019,04,16,14,46,11.70
2019,04,16,14,47,11.80
2019,04,16,14,48,11.80
2019,04,16,14,49,11.80
2019,04,16,14,50,11.80
2019,04,16,14,51,11.70
2019,04,16,14,52,11.70
2019,04,16,14,53,11.80
2019,04,16,14,54,11.80
2019,04,16,14,55,11.80
2019,04,16,14,56,11.80
2019,04,16,14,57,11.70
2019,04,16,14,58,11.70
2019,04,16,14,59,11.70
2019,04,16,15,00,11.70
2019,04,16,15,01,11.70
2019,04,16,15,02,11.70
2019,04,16,15,03,11.70
2019,04,16,15,04,11.70
2019,04,16,15,05,11.70
2019,04,16,15,06,11.70
2019,04,16,15,07,11.70
2019,04,16,15,08,11.70
2019,04,16,15,09,11.70
2019,04,16,15,10,11.60
2019,04,16,15,11,11.60
2019,04,16,15,12,11.50
2019,04,16,15,13,11.50
2019,04,16,15,14,11.40
2019,04,16,15,15,11.40
2019,04,16,15,16,11.40
2019,04,16,15,17,11.30
2019,04,16,15,18,11.30
2019,04,16,15,19,11.30
2019,04,16,15,20,11.30
2019,04,16,15,21,11.30
2019,04,16,15,22,11.30
2019,04,16,15,23,11.30
2019,04,16,15,24,11.30
2019,04,16,15,25,11.30
2019,04,16,15,26,11.30
2019,04,16,15,27,11.30
2019,04,16,15,28,11.30
2019,04,16,15,29,11.30
2019,04,16,15,30,11.30
2019,04,16,15,31,11.30
2019,04,16,15,32,11.30
2019,04,16,15,33,11.30
2019,04,16,15,34,11.30
2019,04,16,15,35,11.20
2019,04,16,15,36,11.20
2019,04,16,15,37,11.20
2019,04,16,15,38,11.20
2019,04,16,15,39,11.30
2019,04,16,15,40,11.30
2019,04,16,15,41,11.30
2019,04,16,15,42,11.30
2019,04,16,15,43,11.40
2019,04,16,15,44,11.40
2019,04,16,15,45,11.40
2019,04,16,15,46,11.40
2019,04,16,15,47,11.40
2019,04,16,15,48,11.40
2019,04,16,15,49,11.40
2019,04,16,15,50,11.40
2019,04,16,15,51,11.30
2019,04,16,15,52,11.40
2019,04,16,15,53,11.40
2019,04,16,15,54,11.40
2019,04,16,15,55,11.40
2019,04,16,15,56,11.40
2019,04,16,15,57,11.40
2019,04,16,15,58,11.40
2019,04,16,15,59,11.40
2019,04,16,16,00,11.40
2019,04,16,16,01,11.40
2019,04,16,16,02,11.50
2019,04,16,16,03,11.50
2019,04,16,16,04,11.50
2019,04,16,16,05,11.50
2019,04,16,16,06,11.50
2019,04,16,16,07,11.50
2019,04,16,16,08,11.50
2019,04,16,16,09,11.40
2019,04,16,16,10,11.40
2019,04,16,16,11,11.30
2019,04,16,16,12,11.30
2019,04,16,16,13,11.30
2019,04,16,16,14,11.30
2019,04,16,16,15,11.30
2019,04,16,16,16,11.30
2019,04,16,16,17,11.30
2019,04,16,16,18,11.30
2019,04,16,16,19,11.30
2019,04,16,16,20,11.20
2019,04,16,16,21,11.20
2019,04,16,16,22,11.20
2019,04,16,16,23,11.20
2019,04,16,16,24,11.20
2019,04,16,16,25,11.20
2019,04,16,16,26,11.20
2019,04,16,16,27,11.20
2019,04,16,16,28,11.10
2019,04,16,16,29,11.10
2019,04,16,16,30,11.10
2019,04,16,16,31,11.10
2019,04,16,16,32,11.10
2019,04,16,16,33,11.10
2019,04,16,16,34,11.00
2019,04,16,16,35,11.00
2019,04,16,16,36,11.00
2019,04,16,16,37,10.90
2019,04,16,16,38,10.90
2019,04,16,16,39,10.90
2019,04,16,16,40,10.90
2019,04,16,16,41,10.90
2019,04,16,16,42,10.80
2019,04,16,16,43,10.80
2019,04,16,16,44,10.80
2019,04,16,16,45,10.70
2019,04,16,16,46,10.70
2019,04,16,16,47,10.70
2019,04,16,16,48,10.70
2019,04,16,16,49,10.70
2019,04,16,16,50,10.70
2019,04,16,16,51,10.70
2019,04,16,16,52,10.70
2019,04,16,16,53,10.70
2019,04,16,16,54,10.70
2019,04,16,16,55,10.70
2019,04,16,16,56,10.70
2019,04,16,16,57,10.70
2019,04,16,16,58,10.70
2019,04,16,16,59,10.70
2019,04,16,17,00,10.60
2019,04,16,17,01,10.60
2019,04,16,17,02,10.60
2019,04,16,17,03,10.50
2019,04,16,17,04,10.50
2019,04,16,17,05,10.40
2019,04,16,17,06,10.40
2019,04,16,17,07,10.40
2019,04,16,17,08,10.30
2019,04,16,17,09,10.30
2019,04,16,17,10,10.30
2019,04,16,17,11,10.30
2019,04,16,17,12,10.30
2019,04,16,17,13,10.30
2019,04,16,17,14,10.30
2019,04,16,17,15,10.30
2019,04,16,17,16,10.30
2019,04,16,17,17,10.30
2019,04,16,17,18,10.30
2019,04,16,17,19,10.30
2019,04,16,17,20,10.30
2019,04,16,17,21,10.30
2019,04,16,17,22,10.30
2019,04,16,17,23,10.20
2019,04,16,17,24,10.20
2019,04,16,17,25,10.20
2019,04,16,17,26,10.20
2019,04,16,17,27,10.20
2019,04,16,17,28,10.20
2019,04,16,17,29,10.20
2019,04,16,17,30,10.20
2019,04,16,17,31,10.20
2019,04,16,17,32,10.20
2019,04,16,17,33,10.20
2019,04,16,17,34,10.20
2019,04,16,17,35,10.20
2019,04,16,17,36,10.20
2019,04,16,17,37,10.20
2019,04,16,17,38,10.20
2019,04,16,17,39,10.20
2019,04,16,17,40,10.20
2019,04,16,17,41,10.20
2019,04,16,17,42,10.20